This is the latest recevied weather packets stored in our database for station/object 7M1JBF-11. If no packets are shown the sender has not sent any weather packets the latest 10 day(s).
| Time | Temp. | Humidity | Pressure | Rain* | Wind** | Luminosity | Snow |
|---|---|---|---|---|---|---|---|
| 1778112825 | 28.89° C | 100% | 1013.6 hPa | 0.25 mm | - | - | - |
| 1778112224 | 28.33° C | 100% | 1013.6 hPa | 0.25 mm | - | - | - |
| 1778111622 | 28.33° C | 100% | 1013.7 hPa | 0.25 mm | - | - | - |
| 1778111021 | 27.78° C | 100% | 1013.9 hPa | 0.25 mm | - | - | - |
| 1778110420 | 27.22° C | 100% | 1013.7 hPa | 0.25 mm | - | - | - |
| 1778109818 | 27.22° C | 100% | 1013.9 hPa | 0.25 mm | - | - | - |
| 1778109217 | 27.22° C | 100% | 1014 hPa | 0.25 mm | - | - | - |
| 1778108616 | 26.11° C | 100% | 1014.2 hPa | 0.25 mm | - | - | - |
| 1778107413 | 23.89° C | 100% | 1014.3 hPa | 0.25 mm | - | - | - |
| 1778106812 | 23.33° C | 100% | 1014.5 hPa | 0.25 mm | - | - | - |
| 1778106210 | 22.22° C | 100% | 1014.6 hPa | 0.25 mm | - | - | - |
| 1778105008 | 21.11° C | 100% | 1014.6 hPa | 0.25 mm | - | - | - |
| 1778104406 | 20.56° C | 100% | 1014.8 hPa | 0.25 mm | - | - | - |
| 1778103805 | 20° C | 100% | 1014.9 hPa | 0.25 mm | - | - | - |
| 1778103203 | 19.44° C | 100% | 1014.8 hPa | 0.25 mm | - | - | - |
| 1778102602 | 19.44° C | 100% | 1014.8 hPa | 0.25 mm | - | - | - |
| 1778102001 | 18.89° C | 100% | 1014.9 hPa | 0.25 mm | - | - | - |
| 1778101399 | 18.89° C | 100% | 1015 hPa | 0.25 mm | - | - | - |
| 1778100197 | 18.89° C | 100% | 1014.8 hPa | 0.25 mm | - | - | - |
| 1778099595 | 18.89° C | 100% | 1014.7 hPa | 0.25 mm | - | - | - |
| 1778098994 | 18.89° C | 100% | 1014.7 hPa | 0.25 mm | - | - | - |
| 1778098393 | 18.89° C | 100% | 1014.6 hPa | 0.25 mm | - | - | - |
| 1778097791 | 18.89° C | 100% | 1014.6 hPa | 0.25 mm | - | - | - |
| 1778097190 | 18.89° C | 100% | 1014.6 hPa | 0.25 mm | - | - | - |
| 1778096588 | 18.89° C | 100% | 1014.6 hPa | 0.25 mm | - | - | - |
* Rain since midnight (hover to see other rain measurements)
** Current wind speed in m/s (hover to see current wind gust speed)